When you browse on this site, cookies collect data to enhance your experience and personalize the content and advertising you see.
Visit our Privacy Policy to learn more. By continuing to use the site, you agree to this use of cookies and data.
  • In Netherlands
  • List of Countries
  • For 7 days
  • Water Temperature
  • Weather Map
  • Weather Widgets
  • user-avatar
    Login

    Hourly Weather Oostkamp

    Today, 31 March, Tuesday

    Time Temperature Precipitation Wind Pressure Humidity
    00:00 +1°C° 0 mm 4 mps 771 mmHg 90%
    01:00 +1°C° 0 mm 4 mps 771 mmHg 91%
    02:00 +1°C° 0 mm 4 mps 770 mmHg 91%
    03:00 0°C° 0 mm 4 mps 770 mmHg 92%
    04:00 0°C° 0 mm 4 mps 771 mmHg 91%
    05:00 0°C° 0 mm 4 mps 771 mmHg 91%
    06:00 0°C° 0 mm 5 mps 772 mmHg 90%
    07:00 +1°C° 0 mm 6 mps 772 mmHg 75%
    08:00 +3°C° 0 mm 6 mps 772 mmHg 60%
    09:00 +4°C° 0 mm 7 mps 772 mmHg 45%
    10:00 +5°C° 0 mm 6 mps 772 mmHg 43%
    11:00 +5°C° 0 mm 6 mps 772 mmHg 42%
    12:00 +7°C° 0 mm 6 mps 772 mmHg 41%
    13:00 +7°C° 0 mm 6 mps 771 mmHg 42%
    14:00 +7°C° 0 mm 6 mps 771 mmHg 43%
    15:00 +8°C° 0 mm 6 mps 771 mmHg 44%
    16:00 +5°C° 0 mm 6 mps 770 mmHg 49%
    17:00 +4°C° 0 mm 6 mps 770 mmHg 54%
    18:00 +3°C° 0 mm 6 mps 770 mmHg 59%
    19:00 +2°C° 0 mm 5 mps 770 mmHg 63%
    20:00 +3°C° 0 mm 4 mps 770 mmHg 66%
    21:00 +1°C° 0 mm 4 mps 770 mmHg 70%
    22:00 +1°C° 0 mm 4 mps 770 mmHg 70%
    23:00 +1°C° 0 mm 3 mps 770 mmHg 70%

    Tomorrow, 1 April, Wednesday

    Time Temperature Precipitation Wind Pressure Humidity
    00:00 +1°C° 0 mm 3 mps 769 mmHg 71%
    01:00 +1°C° 0 mm 3 mps 769 mmHg 71%
    02:00 +1°C° 0 mm 2 mps 769 mmHg 72%
    03:00 +1°C° 0 mm 2 mps 768 mmHg 72%
    04:00 +2°C° 0 mm 1 mps 768 mmHg 72%
    05:00 +2°C° 0 mm 1 mps 768 mmHg 72%
    06:00 +2°C° 0 mm 1 mps 768 mmHg 72%
    07:00 +4°C° 0 mm 1 mps 767 mmHg 67%
    08:00 +5°C° 0 mm 1 mps 767 mmHg 61%
    09:00 +7°C° 0 mm 1 mps 767 mmHg 55%
    10:00 +7°C° 0 mm 2 mps 766 mmHg 54%
    11:00 +8°C° 0 mm 2 mps 766 mmHg 54%
    12:00 +9°C° 0 mm 3 mps 766 mmHg 53%
    13:00 +8°C° 0 mm 3 mps 765 mmHg 56%
    14:00 +8°C° 0 mm 3 mps 764 mmHg 59%
    15:00 +8°C° 0 mm 3 mps 764 mmHg 62%
    16:00 +7°C° 0 mm 3 mps 764 mmHg 65%
    17:00 +7°C° 0 mm 3 mps 763 mmHg 69%
    18:00 +6°C° 0 mm 2 mps 763 mmHg 73%
    19:00 +5°C° 0 mm 2 mps 763 mmHg 76%
    20:00 +4°C° 0 mm 2 mps 763 mmHg 79%
    21:00 +3°C° 0 mm 2 mps 763 mmHg 82%
    22:00 +3°C° 0 mm 2 mps 763 mmHg 82%
    23:00 +3°C° 0 mm 2 mps 763 mmHg 83%

    Day after tomorrow, 2 April, Thursday

    Time Temperature Precipitation Wind Pressure Humidity
    00:00 +3°C° 0 mm 2 mps 763 mmHg 83%
    01:00 +3°C° 0 mm 2 mps 762 mmHg 84%
    02:00 +3°C° 0 mm 2 mps 762 mmHg 84%
    03:00 +3°C° 0 mm 2 mps 762 mmHg 85%
    04:00 +3°C° 0 mm 2 mps 762 mmHg 84%
    05:00 +3°C° 0 mm 2 mps 762 mmHg 84%
    06:00 +3°C° 0 mm 2 mps 761 mmHg 83%
    07:00 +4°C° 0 mm 3 mps 761 mmHg 75%
    08:00 +7°C° 0 mm 3 mps 761 mmHg 68%
    09:00 +7°C° 0 mm 4 mps 760 mmHg 60%
    10:00 +8°C° 0 mm 4 mps 760 mmHg 60%
    11:00 +8°C° 0 mm 5 mps 760 mmHg 60%
    12:00 +8°C° 0 mm 5 mps 760 mmHg 60%
    13:00 +9°C° 0 mm 5 mps 760 mmHg 62%
    14:00 +9°C° 0 mm 5 mps 759 mmHg 63%
    15:00 +9°C° 0 mm 5 mps 759 mmHg 64%
    16:00 +8°C° 0 mm 5 mps 759 mmHg 69%
    17:00 +8°C° 0 mm 5 mps 759 mmHg 73%
    18:00 +7°C° 0 mm 5 mps 758 mmHg 77%
    19:00 +7°C° 0.1 mm 5 mps 759 mmHg 81%
    20:00 +6°C° 0.1 mm 5 mps 759 mmHg 85%
    21:00 +6°C° 0.1 mm 5 mps 759 mmHg 88%
    22:00 +6°C° 0.1 mm 5 mps 759 mmHg 89%
    23:00 +6°C° 0.1 mm 5 mps 759 mmHg 90%

    3 April, Friday

    Time Temperature Precipitation Wind Pressure Humidity
    00:00 +5°C° 0.1 mm 4 mps 759 mmHg 91%
    01:00 +5°C° 0 mm 4 mps 759 mmHg 91%
    02:00 +5°C° 0 mm 4 mps 759 mmHg 91%
    03:00 +5°C° 0 mm 4 mps 759 mmHg 90%
    04:00 +5°C° 0 mm 4 mps 759 mmHg 89%
    05:00 +5°C° 0 mm 4 mps 760 mmHg 88%
    06:00 +4°C° 0 mm 4 mps 760 mmHg 87%
    07:00 +5°C° 0 mm 4 mps 761 mmHg 81%
    08:00 +6°C° 0 mm 4 mps 761 mmHg 74%
    09:00 +7°C° 0 mm 5 mps 761 mmHg 68%
    10:00 +7°C° 0 mm 5 mps 761 mmHg 64%
    11:00 +7°C° 0 mm 5 mps 762 mmHg 61%
    12:00 +8°C° 0 mm 5 mps 762 mmHg 57%
    13:00 +8°C° 0 mm 5 mps 762 mmHg 58%
    14:00 +8°C° 0 mm 4 mps 762 mmHg 58%
    15:00 +7°C° 0 mm 4 mps 762 mmHg 59%
    16:00 +8°C° 0 mm 3 mps 762 mmHg 61%
    17:00 +7°C° 0 mm 2 mps 763 mmHg 64%
    18:00 +8°C° 0 mm 1 mps 763 mmHg 66%
    19:00 +7°C° 0 mm 1 mps 763 mmHg 66%
    20:00 +7°C° 0 mm 1 mps 764 mmHg 66%
    21:00 +7°C° 0 mm 1 mps 764 mmHg 66%
    22:00 +5°C° 0 mm 2 mps 765 mmHg 68%
    23:00 +5°C° 0 mm 2 mps 765 mmHg 70%

    4 April, Saturday

    Time Temperature Precipitation Wind Pressure Humidity
    00:00 +4°C° 0 mm 2 mps 765 mmHg 72%
    01:00 +4°C° 0 mm 2 mps 765 mmHg 72%
    02:00 +4°C° 0 mm 2 mps 765 mmHg 72%
    03:00 +3°C° 0 mm 3 mps 765 mmHg 72%
    04:00 +3°C° 0 mm 3 mps 765 mmHg 72%
    05:00 +3°C° 0 mm 3 mps 766 mmHg 72%
    06:00 +3°C° 0 mm 4 mps 766 mmHg 73%
    07:00 +4°C° 0 mm 4 mps 766 mmHg 68%
    08:00 +6°C° 0 mm 4 mps 765 mmHg 64%
    09:00 +7°C° 0 mm 4 mps 765 mmHg 60%
    10:00 +8°C° 0 mm 4 mps 765 mmHg 58%
    11:00 +11°C° 0 mm 4 mps 765 mmHg 55%
    12:00 +12°C° 0 mm 3 mps 765 mmHg 53%
    13:00 +12°C° 0 mm 3 mps 764 mmHg 53%
    14:00 +13°C° 0 mm 3 mps 764 mmHg 53%
    15:00 +13°C° 0 mm 3 mps 763 mmHg 53%
    16:00 +12°C° 0 mm 3 mps 763 mmHg 57%
    17:00 +12°C° 0 mm 3 mps 763 mmHg 61%
    18:00 +11°C° 0 mm 3 mps 763 mmHg 66%
    19:00 +10°C° 0 mm 3 mps 763 mmHg 68%
    20:00 +9°C° 0 mm 3 mps 763 mmHg 70%
    21:00 +7°C° 0 mm 4 mps 763 mmHg 72%
    22:00 +7°C° 0 mm 4 mps 763 mmHg 75%
    23:00 +6°C° 0 mm 4 mps 762 mmHg 79%

    5 April, Sunday

    Time Temperature Precipitation Wind Pressure Humidity
    00:00 +6°C° 0 mm 4 mps 762 mmHg 82%
    01:00 +5°C° 0 mm 4 mps 762 mmHg 83%
    02:00 +5°C° 0 mm 4 mps 762 mmHg 85%
    03:00 +5°C° 0 mm 4 mps 761 mmHg 87%
    04:00 +5°C° 0 mm 4 mps 761 mmHg 87%
    05:00 +5°C° 0 mm 4 mps 761 mmHg 87%
    06:00 +5°C° 0 mm 4 mps 761 mmHg 88%
    07:00 +7°C° 0 mm 5 mps 761 mmHg 81%
    08:00 +9°C° 0 mm 5 mps 761 mmHg 75%
    09:00 +12°C° 0 mm 5 mps 760 mmHg 68%
    10:00 +14°C° 0 mm 5 mps 760 mmHg 63%
    11:00 +16°C° 0 mm 5 mps 760 mmHg 57%
    12:00 +17°C° 0 mm 6 mps 760 mmHg 51%
    13:00 +19°C° 0 mm 6 mps 759 mmHg 51%
    14:00 +19°C° 0 mm 6 mps 759 mmHg 51%
    15:00 +18°C° 0 mm 7 mps 758 mmHg 51%
    16:00 +17°C° 0 mm 6 mps 758 mmHg 56%
    17:00 +16°C° 0 mm 6 mps 757 mmHg 61%
    18:00 +15°C° 0 mm 5 mps 757 mmHg 65%
    19:00 +14°C° 0 mm 5 mps 757 mmHg 69%
    20:00 +13°C° 0 mm 5 mps 757 mmHg 72%
    21:00 +13°C° 0 mm 6 mps 757 mmHg 76%
    22:00 +11°C° 0 mm 6 mps 756 mmHg 74%
    23:00 +11°C° 0 mm 6 mps 756 mmHg 73%
    Show more